Time,TemperatureF,DewpointF,PressureIn,WindDirection,WindDirectionDegrees,WindSpeedMPH,WindSpeedGustMPH,Humidity,HourlyPrecipIn,Conditions,Clouds,dailyrainin,SolarRadiationWatts/m^2,SoftwareType,DateUTC
2013-04-24 00:00:00,49.0,43.8,30.08,NE,45,4.0,4.0,82,-99.99,,,0.00,0.00,VWS V14.01,2013-04-24 04:00:00,
2013-04-24 00:01:00,49.0,43.8,30.08,NNE,22,5.0,6.0,82,-99.99,,,0.00,0.00,VWS V14.01,2013-04-24 04:01:00,
2013-04-24 00:02:00,49.0,43.8,30.08,NE,45,3.0,6.0,82,-99.99,,,0.00,0.00,VWS V14.01,2013-04-24 04:02:00,
2013-04-24 00:03:00,49.0,43.8,30.08,NE,45,2.0,5.0,82,-99.99,,,0.00,0.00,VWS V14.01,2013-04-24 04:03:00,
2013-04-24 00:04:00,49.0,43.8,30.08,NNE,22,4.0,4.0,82,-99.99,,,0.00,0.00,VWS V14.01,2013-04-24 04:04:00,
2013-04-24 00:05:00,51.0,44.4,30.09,East,90,3.0,4.0,78,-99.99,,,0.00,0.00,VWS V14.01,2013-04-24 04:05:00,
2013-04-24 00:06:00,49.0,43.8,30.08,NNE,22,2.0,4.0,82,-99.99,,,0.00,0.00,VWS V14.01,2013-04-24 04:06:00,
2013-04-24 00:07:00,49.0,43.8,30.08,NNE,22,2.0,4.0,82,-99.99,,,0.00,0.00,VWS V14.01,2013-04-24 04:07:00,
2013-04-24 00:08:00,49.0,43.8,30.08,NE,45,3.0,3.0,82,-99.99,,,0.00,0.00,VWS V14.01,2013-04-24 04:08:00,
2013-04-24 00:09:00,49.0,43.8,30.08,East,90,2.0,4.0,82,-99.99,,,0.00,0.00,VWS V14.01,2013-04-24 04:09:00,
2013-04-24 00:10:00,50.0,43.4,30.09,NE,45,4.0,5.0,78,-99.99,,,0.00,0.00,VWS V14.01,2013-04-24 04:10:00,
2013-04-24 00:11:00,49.0,43.8,30.08,NE,45,2.0,5.0,82,-99.99,,,0.00,0.00,VWS V14.01,2013-04-24 04:11:00,
2013-04-24 00:12:00,49.0,43.8,30.08,NE,45,2.0,3.0,82,-99.99,,,0.00,0.00,VWS V14.01,2013-04-24 04:12:00,
2013-04-24 00:13:00,49.0,43.8,30.08,NE,45,2.0,4.0,82,-99.99,,,0.00,0.00,VWS V14.01,2013-04-24 04:13:00,
2013-04-24 00:14:00,49.0,43.8,30.08,NNE,22,3.0,4.0,82,-99.99,,,0.00,0.00,VWS V14.01,2013-04-24 04:14:00,
2013-04-24 00:15:00,50.0,43.8,30.09,NE,45,5.0,5.0,79,-99.99,,,0.00,0.00,VWS V14.01,2013-04-24 04:15:00,
2013-04-24 00:16:00,49.0,43.8,30.08,NNE,22,3.0,4.0,82,-99.99,,,0.00,0.00,VWS V14.01,2013-04-24 04:16:00,
2013-04-24 00:17:00,49.0,43.8,30.08,NNE,22,3.0,3.0,82,-99.99,,,0.00,0.00,VWS V14.01,2013-04-24 04:17:00,
2013-04-24 00:18:00,49.0,43.8,30.08,NNE,22,2.0,4.0,82,-99.99,,,0.00,0.00,VWS V14.01,2013-04-24 04:18:00,
2013-04-24 00:19:00,49.0,44.1,30.08,NE,45,2.0,4.0,83,-99.99,,,0.00,0.00,VWS V14.01,2013-04-24 04:19:00,
2013-04-24 00:20:00,50.0,43.8,30.09,ENE,68,4.0,4.0,79,-99.99,,,0.00,0.00,VWS V14.01,2013-04-24 04:20:00,
2013-04-24 00:21:00,48.0,43.1,30.08,ENE,68,4.0,4.0,83,-99.99,,,0.00,0.00,VWS V14.01,2013-04-24 04:21:00,
2013-04-24 00:22:00,48.0,43.1,30.08,NNE,22,3.0,4.0,83,-99.99,,,0.00,0.00,VWS V14.01,2013-04-24 04:22:00,
2013-04-24 00:23:00,48.0,43.1,30.08,NE,45,4.0,4.0,83,-99.99,,,0.00,0.00,VWS V14.01,2013-04-24 04:23:00,
2013-04-24 00:24:00,48.0,43.1,30.07,ENE,68,2.0,4.0,83,-99.99,,,0.00,0.00,VWS V14.01,2013-04-24 04:24:00,
2013-04-24 00:25:00,50.0,44.1,30.09,NNE,22,7.0,7.0,80,-99.99,,,0.00,0.00,VWS V14.01,2013-04-24 04:25:00,
2013-04-24 00:26:00,48.0,43.1,30.08,NE,45,4.0,5.0,83,-99.99,,,0.00,0.00,VWS V14.01,2013-04-24 04:26:00,
2013-04-24 00:27:00,48.0,43.1,30.07,NE,45,3.0,4.0,83,-99.99,,,0.00,0.00,VWS V14.01,2013-04-24 04:27:00,
2013-04-24 00:28:00,48.0,43.1,30.08,ENE,68,3.0,5.0,83,-99.99,,,0.00,0.00,VWS V14.01,2013-04-24 04:28:00,
2013-04-24 00:29:00,48.0,43.1,30.07,NE,45,3.0,4.0,83,-99.99,,,0.00,0.00,VWS V14.01,2013-04-24 04:29:00,
2013-04-24 00:30:00,49.0,43.1,30.09,NNE,22,4.0,5.0,80,-99.99,,,0.00,0.00,VWS V14.01,2013-04-24 04:30:00,
2013-04-24 00:31:00,48.0,43.1,30.08,NE,45,4.0,6.0,83,-99.99,,,0.00,0.00,VWS V14.01,2013-04-24 04:31:00,
2013-04-24 00:32:00,48.0,43.1,30.08,NNE,22,3.0,5.0,83,-99.99,,,0.00,0.00,VWS V14.01,2013-04-24 04:32:00,
2013-04-24 00:33:00,48.0,43.1,30.07,NE,45,3.0,3.0,83,-99.99,,,0.00,0.00,VWS V14.01,2013-04-24 04:33:00,
2013-04-24 00:34:00,48.0,43.1,30.07,NE,45,2.0,4.0,83,-99.99,,,0.00,0.00,VWS V14.01,2013-04-24 04:34:00,
2013-04-24 00:35:00,49.0,43.4,30.09,NE,45,4.0,5.0,81,-99.99,,,0.00,0.00,VWS V14.01,2013-04-24 04:35:00,
2013-04-24 00:36:00,48.0,43.1,30.07,NE,45,2.0,3.0,83,-99.99,,,0.00,0.00,VWS V14.01,2013-04-24 04:36:00,
2013-04-24 00:37:00,48.0,43.1,30.07,NE,45,2.0,3.0,83,-99.99,,,0.00,0.00,VWS V14.01,2013-04-24 04:37:00,
2013-04-24 00:38:00,48.0,43.1,30.07,NE,45,2.0,4.0,83,-99.99,,,0.00,0.00,VWS V14.01,2013-04-24 04:38:00,
2013-04-24 00:39:00,48.0,43.1,30.07,ENE,68,3.0,4.0,83,-99.99,,,0.00,0.00,VWS V14.01,2013-04-24 04:39:00,
2013-04-24 00:40:00,49.0,43.4,30.08,ENE,68,4.0,7.0,81,-99.99,,,0.00,0.00,VWS V14.01,2013-04-24 04:40:00,
2013-04-24 00:41:00,48.0,43.1,30.07,NE,45,2.0,3.0,83,-99.99,,,0.00,0.00,VWS V14.01,2013-04-24 04:41:00,
2013-04-24 00:42:00,48.0,43.4,30.07,NE,45,3.0,4.0,84,-99.99,,,0.00,0.00,VWS V14.01,2013-04-24 04:42:00,
2013-04-24 00:43:00,48.0,43.4,30.07,NE,45,3.0,4.0,84,-99.99,,,0.00,0.00,VWS V14.01,2013-04-24 04:43:00,
2013-04-24 00:44:00,48.0,43.4,30.07,NE,45,3.0,4.0,84,-99.99,,,0.00,0.00,VWS V14.01,2013-04-24 04:44:00,
2013-04-24 00:45:00,49.0,43.4,30.08,NNE,22,2.0,3.0,81,-99.99,,,0.00,0.00,VWS V14.01,2013-04-24 04:45:00,
2013-04-24 00:46:00,48.0,43.4,30.07,NE,45,3.0,4.0,84,-99.99,,,0.00,0.00,VWS V14.01,2013-04-24 04:46:00,
2013-04-24 00:47:00,48.0,43.4,30.07,ENE,68,3.0,4.0,84,-99.99,,,0.00,0.00,VWS V14.01,2013-04-24 04:47:00,
2013-04-24 00:48:00,48.0,43.4,30.07,ENE,68,3.0,3.0,84,-99.99,,,0.00,0.00,VWS V14.01,2013-04-24 04:48:00,
2013-04-24 00:49:00,48.0,43.4,30.07,ENE,68,3.0,3.0,84,-99.99,,,0.00,0.00,VWS V14.01,2013-04-24 04:49:00,
2013-04-24 00:50:00,49.0,43.4,30.09,ENE,68,3.0,4.0,81,-99.99,,,0.00,0.00,VWS V14.01,2013-04-24 04:50:00,
2013-04-24 00:51:00,48.0,43.4,30.07,NE,45,3.0,3.0,84,-99.99,,,0.00,0.00,VWS V14.01,2013-04-24 04:51:00,
2013-04-24 00:52:00,48.0,43.4,30.07,NE,45,4.0,4.0,84,-99.99,,,0.00,0.00,VWS V14.01,2013-04-24 04:52:00,
2013-04-24 00:53:00,48.0,43.4,30.07,NE,45,3.0,4.0,84,-99.99,,,0.00,0.00,VWS V14.01,2013-04-24 04:53:00,
2013-04-24 00:54:00,48.0,43.4,30.07,NNE,22,1.0,3.0,84,-99.99,,,0.00,0.00,VWS V14.01,2013-04-24 04:54:00,
2013-04-24 00:55:00,49.0,43.4,30.09,NE,45,4.0,5.0,81,-99.99,,,0.00,0.00,VWS V14.01,2013-04-24 04:55:00,
2013-04-24 00:56:00,48.0,43.4,30.07,NNE,22,2.0,3.0,84,-99.99,,,0.00,0.00,VWS V14.01,2013-04-24 04:56:00,
2013-04-24 00:57:00,48.0,43.4,30.07,NNE,22,2.0,3.0,84,-99.99,,,0.00,0.00,VWS V14.01,2013-04-24 04:57:00,
2013-04-24 00:58:00,48.0,43.4,30.07,ENE,68,1.0,2.0,84,-99.99,,,0.00,0.00,VWS V14.01,2013-04-24 04:58:00,
2013-04-24 00:59:00,48.0,43.4,30.07,NE,45,1.0,3.0,84,-99.99,,,0.00,0.00,VWS V14.01,2013-04-24 04:59:00,
2013-04-24 01:00:00,49.0,43.8,30.08,NE,45,6.0,6.0,82,-99.99,,,0.00,0.00,VWS V14.01,2013-04-24 05:00:00,
2013-04-24 01:01:00,48.0,43.4,30.07,ENE,68,2.0,3.0,84,-99.99,,,0.00,0.00,VWS V14.01,2013-04-24 05:01:00,
2013-04-24 01:02:00,48.0,43.4,30.06,East,90,1.0,3.0,84,-99.99,,,0.00,0.00,VWS V14.01,2013-04-24 05:02:00,
2013-04-24 01:03:00,48.0,43.4,30.06,NE,45,1.0,2.0,84,-99.99,,,0.00,0.00,VWS V14.01,2013-04-24 05:03:00,
2013-04-24 01:04:00,48.0,43.4,30.06,North,0,1.0,2.0,84,-99.99,,,0.00,0.00,VWS V14.01,2013-04-24 05:04:00,
2013-04-24 01:05:00,49.0,43.8,30.08,NE,45,2.0,6.0,82,-99.99,,,0.00,0.00,VWS V14.01,2013-04-24 05:05:00,
2013-04-24 01:06:00,48.0,43.4,30.06,North,0,1.0,1.0,84,-99.99,,,0.00,0.00,VWS V14.01,2013-04-24 05:06:00,
2013-04-24 01:07:00,48.0,43.4,30.06,North,0,1.0,1.0,84,-99.99,,,0.00,0.00,VWS V14.01,2013-04-24 05:07:00,
2013-04-24 01:08:00,48.0,43.4,30.06,North,0,1.0,1.0,84,-99.99,,,0.00,0.00,VWS V14.01,2013-04-24 05:08:00,
2013-04-24 01:09:00,48.0,43.1,30.06,North,0,0.0,1.0,83,-99.99,,,0.00,0.00,VWS V14.01,2013-04-24 05:09:00,
2013-04-24 01:10:00,49.0,43.8,30.08,NE,45,3.0,4.0,82,-99.99,,,0.00,0.00,VWS V14.01,2013-04-24 05:10:00,
2013-04-24 01:11:00,48.0,43.4,30.06,ENE,68,1.0,1.0,84,-99.99,,,0.00,0.00,VWS V14.01,2013-04-24 05:11:00,
2013-04-24 01:12:00,48.0,43.4,30.06,ENE,68,1.0,1.0,84,-99.99,,,0.00,0.00,VWS V14.01,2013-04-24 05:12:00,
2013-04-24 01:13:00,48.0,43.4,30.06,NNE,22,2.0,2.0,84,-99.99,,,0.00,0.00,VWS V14.01,2013-04-24 05:13:00,
2013-04-24 01:14:00,48.0,43.4,30.06,NE,45,2.0,3.0,84,-99.99,,,0.00,0.00,VWS V14.01,2013-04-24 05:14:00,
2013-04-24 01:15:00,49.0,43.8,30.08,NE,45,2.0,3.0,82,-99.99,,,0.00,0.00,VWS V14.01,2013-04-24 05:15:00,
2013-04-24 01:16:00,48.0,43.4,30.06,ENE,68,2.0,2.0,84,-99.99,,,0.00,0.00,VWS V14.01,2013-04-24 05:16:00,
2013-04-24 01:17:00,48.0,43.4,30.06,NNE,22,1.0,2.0,84,-99.99,,,0.00,0.00,VWS V14.01,2013-04-24 05:17:00,
2013-04-24 01:18:00,48.0,43.4,30.06,NNE,22,1.0,1.0,84,-99.99,,,0.00,0.00,VWS V14.01,2013-04-24 05:18:00,
2013-04-24 01:19:00,48.0,43.4,30.06,NNE,22,1.0,1.0,84,-99.99,,,0.00,0.00,VWS V14.01,2013-04-24 05:19:00,
2013-04-24 01:20:00,49.0,43.8,30.08,NE,45,2.0,3.0,82,-99.99,,,0.00,0.00,VWS V14.01,2013-04-24 05:20:00,
2013-04-24 01:21:00,48.0,43.4,30.06,East,90,1.0,2.0,84,-99.99,,,0.00,0.00,VWS V14.01,2013-04-24 05:21:00,
2013-04-24 01:23:00,47.0,42.7,30.06,North,0,1.0,1.0,85,-99.99,,,0.00,0.00,VWS V14.01,2013-04-24 05:23:00,
2013-04-24 01:24:00,47.0,42.7,30.06,North,0,1.0,1.0,85,-99.99,,,0.00,0.00,VWS V14.01,2013-04-24 05:24:00,
2013-04-24 01:25:00,48.0,43.1,30.08,ENE,68,3.0,4.0,83,-99.99,,,0.00,0.00,VWS V14.01,2013-04-24 05:25:00,
2013-04-24 01:26:00,47.0,42.7,30.05,North,0,1.0,1.0,85,-99.99,,,0.00,0.00,VWS V14.01,2013-04-24 05:26:00,
2013-04-24 01:27:00,47.0,42.7,30.06,North,0,1.0,1.0,85,-99.99,,,0.00,0.00,VWS V14.01,2013-04-24 05:27:00,
2013-04-24 01:28:00,47.0,42.7,30.05,ENE,68,2.0,2.0,85,-99.99,,,0.00,0.00,VWS V14.01,2013-04-24 05:28:00,
2013-04-24 01:29:00,47.0,42.7,30.05,NW,315,2.0,2.0,85,-99.99,,,0.00,0.00,VWS V14.01,2013-04-24 05:29:00,
2013-04-24 01:30:00,48.0,43.1,30.08,NE,45,3.0,4.0,83,-99.99,,,0.00,0.00,VWS V14.01,2013-04-24 05:30:00,
2013-04-24 01:31:00,47.0,42.7,30.05,North,0,2.0,4.0,85,-99.99,,,0.00,0.00,VWS V14.01,2013-04-24 05:31:00,
2013-04-24 01:32:00,47.0,43.0,30.05,NW,315,2.0,3.0,86,-99.99,,,0.00,0.00,VWS V14.01,2013-04-24 05:32:00,
2013-04-24 01:33:00,47.0,43.0,30.05,WNW,292,2.0,3.0,86,-99.99,,,0.00,0.00,VWS V14.01,2013-04-24 05:33:00,
2013-04-24 01:34:00,47.0,43.0,30.06,WNW,292,3.0,3.0,86,-99.99,,,0.00,0.00,VWS V14.01,2013-04-24 05:34:00,
2013-04-24 01:35:00,48.0,43.1,30.07,NNE,22,3.0,5.0,83,-99.99,,,0.00,0.00,VWS V14.01,2013-04-24 05:35:00,
2013-04-24 01:36:00,47.0,43.0,30.06,WNW,292,1.0,2.0,86,-99.99,,,0.00,0.00,VWS V14.01,2013-04-24 05:36:00,
2013-04-24 01:37:00,47.0,43.0,30.06,West,270,2.0,3.0,86,-99.99,,,0.00,0.00,VWS V14.01,2013-04-24 05:37:00,
2013-04-24 01:38:00,47.0,43.0,30.06,West,270,3.0,3.0,86,-99.99,,,0.00,0.00,VWS V14.01,2013-04-24 05:38:00,
2013-04-24 01:39:00,47.0,43.0,30.06,West,270,2.0,4.0,86,-99.99,,,0.00,0.00,VWS V14.01,2013-04-24 05:39:00,
2013-04-24 01:40:00,48.0,43.1,30.07,NE,45,2.0,3.0,83,-99.99,,,0.00,0.00,VWS V14.01,2013-04-24 05:40:00,
2013-04-24 01:41:00,47.0,43.0,30.06,WNW,292,3.0,4.0,86,-99.99,,,0.00,0.00,VWS V14.01,2013-04-24 05:41:00,
2013-04-24 01:42:00,47.0,43.0,30.06,West,270,3.0,4.0,86,-99.99,,,0.00,0.00,VWS V14.01,2013-04-24 05:42:00,
2013-04-24 01:43:00,47.0,43.0,30.06,West,270,4.0,4.0,86,-99.99,,,0.00,0.00,VWS V14.01,2013-04-24 05:43:00,
2013-04-24 01:44:00,47.0,43.0,30.06,WSW,248,3.0,4.0,86,-99.99,,,0.00,0.00,VWS V14.01,2013-04-24 05:44:00,
2013-04-24 01:45:00,48.0,43.1,30.07,NE,45,3.0,4.0,83,-99.99,,,0.00,0.00,VWS V14.01,2013-04-24 05:45:00,
2013-04-24 01:46:00,47.0,43.3,30.06,West,270,1.0,2.0,87,-99.99,,,0.00,0.00,VWS V14.01,2013-04-24 05:46:00,
2013-04-24 01:47:00,47.0,43.3,30.06,West,270,2.0,2.0,87,-99.99,,,0.00,0.00,VWS V14.01,2013-04-24 05:47:00,
2013-04-24 01:48:00,47.0,43.0,30.06,WNW,292,2.0,3.0,86,-99.99,,,0.00,0.00,VWS V14.01,2013-04-24 05:48:00,
2013-04-24 01:49:00,47.0,43.0,30.06,WNW,292,1.0,3.0,86,-99.99,,,0.00,0.00,VWS V14.01,2013-04-24 05:49:00,
2013-04-24 01:50:00,48.0,43.4,30.07,ENE,68,2.0,3.0,84,-99.99,,,0.00,0.00,VWS V14.01,2013-04-24 05:50:00,
2013-04-24 01:51:00,47.0,43.3,30.05,WNW,292,1.0,1.0,87,-99.99,,,0.00,0.00,VWS V14.01,2013-04-24 05:51:00,
2013-04-24 01:52:00,47.0,43.3,30.05,West,270,1.0,2.0,87,-99.99,,,0.00,0.00,VWS V14.01,2013-04-24 05:52:00,
2013-04-24 01:53:00,47.0,43.3,30.05,WSW,248,1.0,2.0,87,-99.99,,,0.00,0.00,VWS V14.01,2013-04-24 05:53:00,
2013-04-24 01:54:00,47.0,43.3,30.05,West,270,3.0,3.0,87,-99.99,,,0.00,0.00,VWS V14.01,2013-04-24 05:54:00,
2013-04-24 01:55:00,47.0,43.3,30.05,WSW,248,2.0,3.0,87,-99.99,,,0.00,0.00,VWS V14.01,2013-04-24 05:55:00,
2013-04-24 01:56:00,48.0,43.4,30.07,NNE,22,3.0,4.0,84,-99.99,,,0.00,0.00,VWS V14.01,2013-04-24 05:56:00,
2013-04-24 01:57:00,47.0,43.3,30.05,WSW,248,3.0,4.0,87,-99.99,,,0.00,0.00,VWS V14.01,2013-04-24 05:57:00,
2013-04-24 01:58:00,47.0,43.3,30.05,West,270,3.0,3.0,87,-99.99,,,0.00,0.00,VWS V14.01,2013-04-24 05:58:00,
2013-04-24 01:59:00,47.0,43.3,30.05,WSW,248,1.0,3.0,87,-99.99,,,0.00,0.00,VWS V14.01,2013-04-24 05:59:00,
2013-04-24 02:00:00,47.0,43.3,30.05,SW,225,2.0,3.0,87,-99.99,,,0.00,0.00,VWS V14.01,2013-04-24 06:00:00,
2013-04-24 02:01:00,48.0,43.4,30.07,NE,45,2.0,3.0,84,-99.99,,,0.00,0.00,VWS V14.01,2013-04-24 06:01:00,
2013-04-24 02:02:00,47.0,43.3,30.05,WSW,248,2.0,3.0,87,-99.99,,,0.00,0.00,VWS V14.01,2013-04-24 06:02:00,
2013-04-24 02:03:00,47.0,43.3,30.05,WSW,248,3.0,4.0,87,-99.99,,,0.00,0.00,VWS V14.01,2013-04-24 06:03:00,
2013-04-24 02:04:00,47.0,43.0,30.05,WSW,248,2.0,4.0,86,-99.99,,,0.00,0.00,VWS V14.01,2013-04-24 06:04:00,
2013-04-24 02:05:00,47.0,43.0,30.05,West,270,3.0,4.0,86,-99.99,,,0.00,0.00,VWS V14.01,2013-04-24 06:05:00,
2013-04-24 02:06:00,48.0,43.4,30.06,East,90,1.0,3.0,84,-99.99,,,0.00,0.00,VWS V14.01,2013-04-24 06:06:00,
2013-04-24 02:07:00,47.0,43.0,30.05,WSW,248,2.0,4.0,86,-99.99,,,0.00,0.00,VWS V14.01,2013-04-24 06:07:00,
2013-04-24 02:08:00,47.0,43.0,30.05,WNW,292,3.0,3.0,86,-99.99,,,0.00,0.00,VWS V14.01,2013-04-24 06:08:00,
2013-04-24 02:09:00,47.0,43.0,30.05,WSW,248,3.0,3.0,86,-99.99,,,0.00,0.00,VWS V14.01,2013-04-24 06:09:00,
2013-04-24 02:10:00,47.0,43.0,30.05,WNW,292,1.0,3.0,86,-99.99,,,0.00,0.00,VWS V14.01,2013-04-24 06:10:00,
2013-04-24 02:11:00,48.0,43.4,30.07,North,0,1.0,1.0,84,-99.99,,,0.00,0.00,VWS V14.01,2013-04-24 06:11:00,
2013-04-24 02:12:00,47.0,43.0,30.05,West,270,3.0,3.0,86,-99.99,,,0.00,0.00,VWS V14.01,2013-04-24 06:12:00,
2013-04-24 02:13:00,47.0,43.0,30.05,WSW,248,4.0,4.0,86,-99.99,,,0.00,0.00,VWS V14.01,2013-04-24 06:13:00,
2013-04-24 02:14:00,47.0,43.0,30.05,WSW,248,2.0,4.0,86,-99.99,,,0.00,0.00,VWS V14.01,2013-04-24 06:14:00,
2013-04-24 02:15:00,47.0,43.0,30.05,WNW,292,1.0,2.0,86,-99.99,,,0.00,0.00,VWS V14.01,2013-04-24 06:15:00,
2013-04-24 02:16:00,48.0,43.4,30.06,ENE,68,1.0,1.0,84,-99.99,,,0.00,0.00,VWS V14.01,2013-04-24 06:16:00,
2013-04-24 02:17:00,47.0,43.0,30.05,WSW,248,1.0,1.0,86,-99.99,,,0.00,0.00,VWS V14.01,2013-04-24 06:17:00,
2013-04-24 02:18:00,47.0,43.0,30.05,WNW,292,2.0,2.0,86,-99.99,,,0.00,0.00,VWS V14.01,2013-04-24 06:18:00,
2013-04-24 02:19:00,47.0,43.0,30.05,West,270,3.0,3.0,86,-99.99,,,0.00,0.00,VWS V14.01,2013-04-24 06:19:00,
2013-04-24 02:20:00,47.0,43.0,30.05,SSW,202,2.0,3.0,86,-99.99,,,0.00,0.00,VWS V14.01,2013-04-24 06:20:00,
2013-04-24 02:21:00,48.0,43.4,30.06,NNE,22,1.0,2.0,84,-99.99,,,0.00,0.00,VWS V14.01,2013-04-24 06:21:00,
2013-04-24 02:22:00,47.0,43.0,30.05,West,270,2.0,4.0,86,-99.99,,,0.00,0.00,VWS V14.01,2013-04-24 06:22:00,
2013-04-24 02:23:00,47.0,43.0,30.05,West,270,3.0,4.0,86,-99.99,,,0.00,0.00,VWS V14.01,2013-04-24 06:23:00,
2013-04-24 02:24:00,47.0,43.0,30.05,WNW,292,2.0,3.0,86,-99.99,,,0.00,0.00,VWS V14.01,2013-04-24 06:24:00,
2013-04-24 02:25:00,47.0,43.0,30.05,WNW,292,2.0,3.0,86,-99.99,,,0.00,0.00,VWS V14.01,2013-04-24 06:25:00,
2013-04-24 02:26:00,48.0,43.4,30.06,East,90,1.0,1.0,84,-99.99,,,0.00,0.00,VWS V14.01,2013-04-24 06:26:00,
2013-04-24 02:27:00,47.0,43.0,30.05,WNW,292,1.0,3.0,86,-99.99,,,0.00,0.00,VWS V14.01,2013-04-24 06:27:00,
2013-04-24 02:28:00,47.0,43.0,30.05,WNW,292,1.0,2.0,86,-99.99,,,0.00,0.00,VWS V14.01,2013-04-24 06:28:00,
2013-04-24 02:29:00,47.0,43.0,30.05,West,270,2.0,3.0,86,-99.99,,,0.00,0.00,VWS V14.01,2013-04-24 06:29:00,
2013-04-24 02:30:00,47.0,43.0,30.05,West,270,1.0,2.0,86,-99.99,,,0.00,0.00,VWS V14.01,2013-04-24 06:30:00,
2013-04-24 02:31:00,47.0,42.7,30.05,North,0,1.0,1.0,85,-99.99,,,0.00,0.00,VWS V14.01,2013-04-24 06:31:00,
2013-04-24 02:32:00,47.0,43.0,30.04,WNW,292,1.0,1.0,86,-99.99,,,0.00,0.00,VWS V14.01,2013-04-24 06:32:00,
2013-04-24 02:33:00,47.0,43.0,30.05,WNW,292,0.0,1.0,86,-99.99,,,0.00,0.00,VWS V14.01,2013-04-24 06:33:00,
2013-04-24 02:34:00,47.0,43.0,30.05,WNW,292,1.0,1.0,86,-99.99,,,0.00,0.00,VWS V14.01,2013-04-24 06:34:00,
2013-04-24 02:35:00,47.0,43.0,30.05,SSW,202,2.0,2.0,86,-99.99,,,0.00,0.00,VWS V14.01,2013-04-24 06:35:00,
2013-04-24 02:36:00,47.0,43.0,30.05,NW,315,3.0,3.0,86,-99.99,,,0.00,0.00,VWS V14.01,2013-04-24 06:36:00,
2013-04-24 02:37:00,47.0,43.0,30.05,SSW,202,0.0,1.0,86,-99.99,,,0.00,0.00,VWS V14.01,2013-04-24 06:37:00,
2013-04-24 02:38:00,47.0,43.0,30.05,SSW,202,2.0,2.0,86,-99.99,,,0.00,0.00,VWS V14.01,2013-04-24 06:38:00,
2013-04-24 02:39:00,47.0,43.0,30.05,SSW,202,1.0,2.0,86,-99.99,,,0.00,0.00,VWS V14.01,2013-04-24 06:39:00,
2013-04-24 02:40:00,47.0,43.0,30.05,SW,225,2.0,2.0,86,-99.99,,,0.00,0.00,VWS V14.01,2013-04-24 06:40:00,
2013-04-24 02:41:00,47.0,43.0,30.06,WNW,292,2.0,2.0,86,-99.99,,,0.00,0.00,VWS V14.01,2013-04-24 06:41:00,
2013-04-24 02:42:00,47.0,43.0,30.05,ESE,112,1.0,3.0,86,-99.99,,,0.00,0.00,VWS V14.01,2013-04-24 06:42:00,
2013-04-24 02:43:00,47.0,43.3,30.05,SW,225,1.0,3.0,87,-99.99,,,0.00,0.00,VWS V14.01,2013-04-24 06:43:00,
2013-04-24 02:44:00,46.0,42.3,30.05,SSE,158,2.0,2.0,87,-99.99,,,0.00,0.00,VWS V14.01,2013-04-24 06:44:00,
2013-04-24 02:45:00,46.0,42.3,30.04,South,180,1.0,2.0,87,-99.99,,,0.00,0.00,VWS V14.01,2013-04-24 06:45:00,
2013-04-24 02:46:00,47.0,43.0,30.06,WNW,292,3.0,4.0,86,-99.99,,,0.00,0.00,VWS V14.01,2013-04-24 06:46:00,
2013-04-24 02:47:00,46.0,42.3,30.04,ESE,112,3.0,3.0,87,-99.99,,,0.00,0.00,VWS V14.01,2013-04-24 06:47:00,
2013-04-24 02:48:00,46.0,42.3,30.04,ESE,112,1.0,3.0,87,-99.99,,,0.00,0.00,VWS V14.01,2013-04-24 06:48:00,
2013-04-24 02:49:00,46.0,42.3,30.04,NE,45,1.0,3.0,87,-99.99,,,0.00,0.00,VWS V14.01,2013-04-24 06:49:00,
2013-04-24 02:50:00,46.0,42.3,30.04,NE,45,1.0,1.0,87,-99.99,,,0.00,0.00,VWS V14.01,2013-04-24 06:50:00,
2013-04-24 02:51:00,47.0,43.3,30.06,West,270,1.0,1.0,87,-99.99,,,0.00,0.00,VWS V14.01,2013-04-24 06:51:00,
2013-04-24 02:52:00,46.0,42.3,30.04,South,180,1.0,1.0,87,-99.99,,,0.00,0.00,VWS V14.01,2013-04-24 06:52:00,
2013-04-24 02:53:00,46.0,42.3,30.04,South,180,0.0,1.0,87,-99.99,,,0.00,0.00,VWS V14.01,2013-04-24 06:53:00,
2013-04-24 02:54:00,46.0,42.3,30.04,South,180,1.0,1.0,87,-99.99,,,0.00,0.00,VWS V14.01,2013-04-24 06:54:00,
2013-04-24 02:55:00,46.0,42.3,30.04,NNE,22,2.0,2.0,87,-99.99,,,0.00,0.00,VWS V14.01,2013-04-24 06:55:00,
2013-04-24 02:56:00,47.0,43.3,30.05,West,270,1.0,2.0,87,-99.99,,,0.00,0.00,VWS V14.01,2013-04-24 06:56:00,
2013-04-24 02:57:00,46.0,42.3,30.04,NE,45,0.0,1.0,87,-99.99,,,0.00,0.00,VWS V14.01,2013-04-24 06:57:00,
2013-04-24 02:58:00,46.0,42.3,30.04,NNE,22,1.0,1.0,87,-99.99,,,0.00,0.00,VWS V14.01,2013-04-24 06:58:00,
2013-04-24 02:59:00,46.0,42.3,30.05,West,270,0.0,2.0,87,-99.99,,,0.00,0.00,VWS V14.01,2013-04-24 06:59:00,
2013-04-24 03:00:00,46.0,42.3,30.05,West,270,1.0,1.0,87,-99.99,,,0.00,0.00,VWS V14.01,2013-04-24 07:00:00,
2013-04-24 03:01:00,47.0,43.3,30.05,West,270,3.0,4.0,87,-99.99,,,0.00,0.00,VWS V14.01,2013-04-24 07:01:00,
2013-04-24 03:02:00,46.0,42.3,30.05,ESE,112,2.0,2.0,87,-99.99,,,0.00,0.00,VWS V14.01,2013-04-24 07:02:00,
2013-04-24 03:03:00,46.0,42.3,30.05,East,90,2.0,3.0,87,-99.99,,,0.00,0.00,VWS V14.01,2013-04-24 07:03:00,
2013-04-24 03:04:00,46.0,42.3,30.04,ENE,68,2.0,3.0,87,-99.99,,,0.00,0.00,VWS V14.01,2013-04-24 07:04:00,
2013-04-24 03:05:00,46.0,42.7,30.04,NE,45,2.0,3.0,88,-99.99,,,0.00,0.00,VWS V14.01,2013-04-24 07:05:00,
2013-04-24 03:06:00,47.0,43.3,30.05,West,270,2.0,3.0,87,-99.99,,,0.00,0.00,VWS V14.01,2013-04-24 07:06:00,
2013-04-24 03:07:00,45.0,41.7,30.05,NNE,22,2.0,2.0,88,-99.99,,,0.00,0.00,VWS V14.01,2013-04-24 07:07:00,
2013-04-24 03:08:00,45.0,41.7,30.04,East,90,2.0,3.0,88,-99.99,,,0.00,0.00,VWS V14.01,2013-04-24 07:08:00,
2013-04-24 03:09:00,45.0,41.7,30.05,NE,45,2.0,3.0,88,-99.99,,,0.00,0.00,VWS V14.01,2013-04-24 07:09:00,
2013-04-24 03:10:00,45.0,42.0,30.04,NNE,22,2.0,3.0,89,-99.99,,,0.00,0.00,VWS V14.01,2013-04-24 07:10:00,
2013-04-24 03:11:00,47.0,43.0,30.05,WSW,248,3.0,4.0,86,-99.99,,,0.00,0.00,VWS V14.01,2013-04-24 07:11:00,
2013-04-24 03:12:00,45.0,42.0,30.04,NE,45,2.0,3.0,89,-99.99,,,0.00,0.00,VWS V14.01,2013-04-24 07:12:00,
2013-04-24 03:13:00,45.0,42.0,30.04,NE,45,3.0,3.0,89,-99.99,,,0.00,0.00,VWS V14.01,2013-04-24 07:13:00,
2013-04-24 03:14:00,45.0,42.0,30.04,NE,45,2.0,3.0,89,-99.99,,,0.00,0.00,VWS V14.01,2013-04-24 07:14:00,
2013-04-24 03:15:00,45.0,42.0,30.04,East,90,2.0,3.0,89,-99.99,,,0.00,0.00,VWS V14.01,2013-04-24 07:15:00,
2013-04-24 03:16:00,47.0,43.0,30.05,West,270,2.0,2.0,86,-99.99,,,0.00,0.00,VWS V14.01,2013-04-24 07:16:00,
2013-04-24 03:17:00,45.0,42.2,30.04,NE,45,2.0,2.0,90,-99.99,,,0.00,0.00,VWS V14.01,2013-04-24 07:17:00,
2013-04-24 03:18:00,45.0,42.2,30.04,NE,45,2.0,2.0,90,-99.99,,,0.00,0.00,VWS V14.01,2013-04-24 07:18:00,
2013-04-24 03:19:00,45.0,42.2,30.04,NE,45,2.0,3.0,90,-99.99,,,0.00,0.00,VWS V14.01,2013-04-24 07:19:00,
2013-04-24 03:20:00,45.0,42.5,30.05,NE,45,1.0,2.0,91,-99.99,,,0.00,0.00,VWS V14.01,2013-04-24 07:20:00,
2013-04-24 03:21:00,47.0,43.0,30.05,WSW,248,0.0,1.0,86,-99.99,,,0.00,0.00,VWS V14.01,2013-04-24 07:21:00,
2013-04-24 03:22:00,45.0,42.5,30.04,NNE,22,1.0,3.0,91,-99.99,,,0.00,0.00,VWS V14.01,2013-04-24 07:22:00,
2013-04-24 03:23:00,45.0,42.5,30.04,NNE,22,1.0,3.0,91,-99.99,,,0.00,0.00,VWS V14.01,2013-04-24 07:23:00,
2013-04-24 03:24:00,45.0,42.5,30.04,NNE,22,0.0,2.0,91,-99.99,,,0.00,0.00,VWS V14.01,2013-04-24 07:24:00,
2013-04-24 03:25:00,45.0,42.5,30.05,NE,45,3.0,3.0,91,-99.99,,,0.00,0.00,VWS V14.01,2013-04-24 07:25:00,
2013-04-24 03:26:00,47.0,43.0,30.05,WSW,248,2.0,4.0,86,-99.99,,,0.00,0.00,VWS V14.01,2013-04-24 07:26:00,
2013-04-24 03:27:00,45.0,42.8,30.05,NNE,22,2.0,3.0,92,-99.99,,,0.00,0.00,VWS V14.01,2013-04-24 07:27:00,
2013-04-24 03:28:00,45.0,42.8,30.05,NNE,22,1.0,2.0,92,-99.99,,,0.00,0.00,VWS V14.01,2013-04-24 07:28:00,
2013-04-24 03:29:00,45.0,42.8,30.04,NNE,22,2.0,2.0,92,-99.99,,,0.00,0.00,VWS V14.01,2013-04-24 07:29:00,
2013-04-24 03:30:00,45.0,42.8,30.04,NNE,22,2.0,2.0,92,-99.99,,,0.00,0.00,VWS V14.01,2013-04-24 07:30:00,
2013-04-24 03:31:00,47.0,43.0,30.05,WNW,292,1.0,3.0,86,-99.99,,,0.00,0.00,VWS V14.01,2013-04-24 07:31:00,
2013-04-24 03:32:00,45.0,43.1,30.04,East,90,3.0,4.0,93,-99.99,,,0.00,0.00,VWS V14.01,2013-04-24 07:32:00,
2013-04-24 03:33:00,45.0,43.1,30.04,NE,45,3.0,4.0,93,-99.99,,,0.00,0.00,VWS V14.01,2013-04-24 07:33:00,
2013-04-24 03:34:00,45.0,43.1,30.04,NE,45,4.0,4.0,93,-99.99,,,0.00,0.00,VWS V14.01,2013-04-24 07:34:00,
2013-04-24 03:35:00,45.0,43.1,30.04,NNE,22,4.0,4.0,93,-99.99,,,0.00,0.00,VWS V14.01,2013-04-24 07:35:00,
2013-04-24 03:36:00,47.0,43.0,30.04,WNW,292,0.0,1.0,86,-99.99,,,0.00,0.00,VWS V14.01,2013-04-24 07:36:00,
2013-04-24 03:37:00,45.0,43.1,30.04,ENE,68,2.0,3.0,93,-99.99,,,0.00,0.00,VWS V14.01,2013-04-24 07:37:00,
2013-04-24 03:38:00,45.0,43.1,30.04,NE,45,2.0,3.0,93,-99.99,,,0.00,0.00,VWS V14.01,2013-04-24 07:38:00,
2013-04-24 03:39:00,45.0,43.1,30.04,NE,45,2.0,4.0,93,-99.99,,,0.00,0.00,VWS V14.01,2013-04-24 07:39:00,
2013-04-24 03:40:00,45.0,43.1,30.05,NE,45,2.0,3.0,93,-99.99,,,0.00,0.00,VWS V14.01,2013-04-24 07:40:00,
2013-04-24 03:41:00,47.0,43.0,30.05,SSW,202,0.0,1.0,86,-99.99,,,0.00,0.00,VWS V14.01,2013-04-24 07:41:00,
2013-04-24 03:44:00,45.0,43.1,30.05,West,270,1.0,1.0,93,-99.99,,,0.00,0.00,VWS V14.01,2013-04-24 07:44:00,
2013-04-24 03:45:00,45.0,43.1,30.05,West,270,1.0,1.0,93,-99.99,,,0.00,0.00,VWS V14.01,2013-04-24 07:45:00,
2013-04-24 03:46:00,47.0,43.0,30.05,ESE,112,2.0,3.0,86,-99.99,,,0.00,0.00,VWS V14.01,2013-04-24 07:46:00,
2013-04-24 03:47:00,45.0,43.1,30.04,ENE,68,2.0,3.0,93,-99.99,,,0.00,0.00,VWS V14.01,2013-04-24 07:47:00,
2013-04-24 03:48:00,45.0,43.1,30.05,NNE,22,1.0,2.0,93,-99.99,,,0.00,0.00,VWS V14.01,2013-04-24 07:48:00,
2013-04-24 03:49:00,45.0,43.1,30.05,NNE,22,1.0,2.0,93,-99.99,,,0.00,0.00,VWS V14.01,2013-04-24 07:49:00,
2013-04-24 03:50:00,45.0,43.1,30.04,NNE,22,1.0,1.0,93,-99.99,,,0.00,0.00,VWS V14.01,2013-04-24 07:50:00,
2013-04-24 03:51:00,46.0,42.3,30.04,SE,135,2.0,3.0,87,-99.99,,,0.00,0.00,VWS V14.01,2013-04-24 07:51:00,
2013-04-24 03:56:00,46.0,42.3,30.04,SSE,158,1.0,1.0,87,-99.99,,,0.00,0.00,VWS V14.01,2013-04-24 07:56:00,
2013-04-24 04:01:00,46.0,42.3,30.04,NE,45,0.0,1.0,87,-99.99,,,0.00,0.00,VWS V14.01,2013-04-24 08:01:00,
2013-04-24 04:06:00,46.0,42.3,30.05,East,90,2.0,2.0,87,-99.99,,,0.00,0.00,VWS V14.01,2013-04-24 08:06:00,
2013-04-24 04:11:00,45.0,41.7,30.05,NNE,22,2.0,2.0,88,-99.99,,,0.00,0.00,VWS V14.01,2013-04-24 08:11:00,
2013-04-24 04:16:00,45.0,42.0,30.04,ENE,68,2.0,3.0,89,-99.99,,,0.00,0.00,VWS V14.01,2013-04-24 08:16:00,
2013-04-24 04:21:00,45.0,42.2,30.04,NE,45,2.0,2.0,90,-99.99,,,0.00,0.00,VWS V14.01,2013-04-24 08:21:00,
2013-04-24 04:26:00,45.0,42.5,30.04,NNE,22,1.0,3.0,91,-99.99,,,0.00,0.00,VWS V14.01,2013-04-24 08:26:00,
2013-04-24 04:31:00,45.0,42.8,30.05,NNE,22,2.0,3.0,92,-99.99,,,0.00,0.00,VWS V14.01,2013-04-24 08:31:00,
2013-04-24 04:36:00,45.0,43.1,30.04,East,90,3.0,4.0,93,-99.99,,,0.00,0.00,VWS V14.01,2013-04-24 08:36:00,
2013-04-24 04:41:00,45.0,43.1,30.04,ENE,68,2.0,3.0,93,-99.99,,,0.00,0.00,VWS V14.01,2013-04-24 08:41:00,
2013-04-24 04:48:00,45.0,43.1,30.05,West,270,1.0,1.0,93,-99.99,,,0.00,0.00,VWS V14.01,2013-04-24 08:48:00,
2013-04-24 04:53:00,45.0,43.1,30.04,NNE,22,1.0,1.0,93,-99.99,,,0.00,0.00,VWS V14.01,2013-04-24 08:53:00,
2013-04-24 04:58:00,45.0,43.1,30.04,South,180,0.0,1.0,93,-99.99,,,0.00,0.00,VWS V14.01,2013-04-24 08:58:00,
2013-04-24 05:03:00,45.0,43.1,30.04,NE,45,2.0,2.0,93,-99.99,,,0.00,0.00,VWS V14.01,2013-04-24 09:03:00,
2013-04-24 05:08:00,45.0,43.1,30.04,North,0,1.0,2.0,93,-99.99,,,0.00,0.00,VWS V14.01,2013-04-24 09:08:00,
2013-04-24 05:13:00,45.0,43.1,30.04,North,0,1.0,1.0,93,-99.99,,,0.00,0.00,VWS V14.01,2013-04-24 09:13:00,
2013-04-24 05:18:00,45.0,43.1,30.05,SW,225,1.0,1.0,93,-99.99,,,0.00,0.00,VWS V14.01,2013-04-24 09:18:00,
2013-04-24 05:23:00,45.0,43.1,30.05,ESE,112,1.0,1.0,93,-99.99,,,0.00,0.00,VWS V14.01,2013-04-24 09:23:00,
2013-04-24 05:28:00,44.0,41.8,30.05,ESE,112,4.0,5.0,92,-99.99,,,0.00,0.00,VWS V14.01,2013-04-24 09:28:00,
2013-04-24 05:33:00,44.0,41.8,30.05,ENE,68,3.0,4.0,92,-99.99,,,0.00,0.00,VWS V14.01,2013-04-24 09:33:00,
2013-04-24 05:38:00,43.0,41.1,30.04,NNE,22,3.0,3.0,93,-99.99,,,0.00,0.00,VWS V14.01,2013-04-24 09:38:00,
2013-04-24 05:43:00,43.0,41.1,30.05,West,270,2.0,2.0,93,-99.99,,,0.00,0.00,VWS V14.01,2013-04-24 09:43:00,
2013-04-24 05:48:00,43.0,41.4,30.06,WSW,248,3.0,3.0,94,-99.99,,,0.00,0.00,VWS V14.01,2013-04-24 09:48:00,
2013-04-24 05:53:00,44.0,42.4,30.05,NW,315,2.0,2.0,94,-99.99,,,0.00,0.00,VWS V14.01,2013-04-24 09:53:00,
2013-04-24 05:58:00,44.0,42.4,30.05,North,0,2.0,2.0,94,-99.99,,,0.00,0.00,VWS V14.01,2013-04-24 09:58:00,
2013-04-24 06:03:00,44.0,42.4,30.05,ENE,68,3.0,4.0,94,-99.99,,,0.00,0.00,VWS V14.01,2013-04-24 10:03:00,
2013-04-24 06:08:00,43.0,41.4,30.05,NE,45,2.0,3.0,94,-99.99,,,0.00,0.00,VWS V14.01,2013-04-24 10:08:00,
2013-04-24 06:13:00,43.0,41.7,30.05,NE,45,3.0,3.0,95,-99.99,,,0.00,10.00,VWS V14.01,2013-04-24 10:13:00,
2013-04-24 06:18:00,43.0,41.7,30.04,NE,45,2.0,3.0,95,-99.99,,,0.00,10.00,VWS V14.01,2013-04-24 10:18:00,
2013-04-24 06:23:00,44.0,42.9,30.04,NNW,338,2.0,2.0,96,-99.99,,,0.00,10.00,VWS V14.01,2013-04-24 10:23:00,
2013-04-24 06:28:00,44.0,42.9,30.04,NW,315,0.0,1.0,96,-99.99,,,0.00,20.00,VWS V14.01,2013-04-24 10:28:00,
2013-04-24 06:33:00,44.0,42.7,30.04,NNW,338,2.0,3.0,95,-99.99,,,0.00,40.00,VWS V14.01,2013-04-24 10:33:00,
2013-04-24 06:38:00,44.0,42.7,30.04,NNE,22,3.0,4.0,95,-99.99,,,0.00,50.00,VWS V14.01,2013-04-24 10:38:00,
2013-04-24 06:43:00,44.0,42.7,30.04,NW,315,3.0,4.0,95,-99.99,,,0.00,50.00,VWS V14.01,2013-04-24 10:43:00,
2013-04-24 06:48:00,45.0,43.7,30.04,NNE,22,1.0,3.0,95,-99.99,,,0.00,30.00,VWS V14.01,2013-04-24 10:48:00,
2013-04-24 06:53:00,45.0,43.7,30.04,NE,45,3.0,3.0,95,-99.99,,,0.00,30.00,VWS V14.01,2013-04-24 10:53:00,
2013-04-24 06:58:00,45.0,43.4,30.04,NNE,22,3.0,4.0,94,-99.99,,,0.00,30.00,VWS V14.01,2013-04-24 10:58:00,
2013-04-24 07:03:00,45.0,43.7,30.04,NNW,338,2.0,4.0,95,-99.99,,,0.00,30.00,VWS V14.01,2013-04-24 11:03:00,
2013-04-24 07:08:00,45.0,43.1,30.04,NE,45,3.0,4.0,93,-99.99,,,0.00,50.00,VWS V14.01,2013-04-24 11:08:00,
2013-04-24 07:13:00,44.0,42.1,30.04,NE,45,2.0,3.0,93,-99.99,,,0.00,140.00,VWS V14.01,2013-04-24 11:13:00,
2013-04-24 07:18:00,44.0,42.1,30.03,NE,45,4.0,4.0,93,-99.99,,,0.00,160.00,VWS V14.01,2013-04-24 11:18:00,
2013-04-24 07:23:00,45.0,43.4,30.03,NE,45,2.0,4.0,94,-99.99,,,0.00,180.00,VWS V14.01,2013-04-24 11:23:00,
2013-04-24 07:28:00,45.0,43.1,30.04,NE,45,2.0,3.0,93,-99.99,,,0.00,200.00,VWS V14.01,2013-04-24 11:28:00,
2013-04-24 07:33:00,45.0,43.1,30.04,NNW,338,1.0,2.0,93,-99.99,,,0.00,210.00,VWS V14.01,2013-04-24 11:33:00,
2013-04-24 07:38:00,46.0,43.8,30.03,NE,45,4.0,5.0,92,-99.99,,,0.00,220.00,VWS V14.01,2013-04-24 11:38:00,
2013-04-24 07:43:00,46.0,43.5,30.03,NE,45,2.0,4.0,91,-99.99,,,0.00,250.00,VWS V14.01,2013-04-24 11:43:00,
2013-04-24 07:48:00,47.0,44.2,30.03,North,0,2.0,2.0,90,-99.99,,,0.00,310.00,VWS V14.01,2013-04-24 11:48:00,
2013-04-24 07:53:00,47.0,44.2,30.03,NE,45,3.0,3.0,90,-99.99,,,0.00,360.00,VWS V14.01,2013-04-24 11:53:00,
2013-04-24 07:58:00,48.0,44.6,30.03,NE,45,3.0,4.0,88,-99.99,,,0.00,130.00,VWS V14.01,2013-04-24 11:58:00,
2013-04-24 08:03:00,48.0,44.3,30.03,WNW,292,1.0,2.0,87,-99.99,,,0.00,90.00,VWS V14.01,2013-04-24 12:03:00,
2013-04-24 08:09:00,48.0,44.3,30.04,ESE,112,2.0,3.0,87,-99.99,,,0.00,70.00,VWS V14.01,2013-04-24 12:09:00,
2013-04-24 08:13:00,48.0,44.3,30.03,NE,45,3.0,4.0,87,-99.99,,,0.00,200.00,VWS V14.01,2013-04-24 12:13:00,
2013-04-24 08:19:00,48.0,44.6,30.03,NNE,22,3.0,5.0,88,-99.99,,,0.00,340.00,VWS V14.01,2013-04-24 12:19:00,
2013-04-24 08:24:00,48.0,44.3,30.03,ENE,68,3.0,4.0,87,-99.99,,,0.00,350.00,VWS V14.01,2013-04-24 12:24:00,
2013-04-24 08:29:00,48.0,44.0,30.03,NE,45,2.0,3.0,86,-99.99,,,0.00,370.00,VWS V14.01,2013-04-24 12:29:00,
2013-04-24 08:34:00,49.0,45.0,30.02,ENE,68,3.0,4.0,86,-99.99,,,0.00,330.00,VWS V14.01,2013-04-24 12:34:00,
2013-04-24 08:39:00,50.0,45.7,30.02,NE,45,4.0,4.0,85,-99.99,,,0.00,420.00,VWS V14.01,2013-04-24 12:39:00,
2013-04-24 08:44:00,50.0,45.4,30.02,NE,45,4.0,4.0,84,-99.99,,,0.00,410.00,VWS V14.01,2013-04-24 12:44:00,
2013-04-24 08:49:00,51.0,46.0,30.02,ENE,68,2.0,4.0,83,-99.99,,,0.00,310.00,VWS V14.01,2013-04-24 12:49:00,
2013-04-24 08:54:00,51.0,46.0,30.02,ENE,68,3.0,4.0,83,-99.99,,,0.00,340.00,VWS V14.01,2013-04-24 12:54:00,
2013-04-24 08:59:00,51.0,46.0,30.02,SSE,158,3.0,4.0,83,-99.99,,,0.00,260.00,VWS V14.01,2013-04-24 12:59:00,
2013-04-24 09:04:00,52.0,47.0,30.02,East,90,2.0,4.0,83,-99.99,,,0.00,530.00,VWS V14.01,2013-04-24 13:04:00,
2013-04-24 09:09:00,52.0,46.4,30.01,ESE,112,5.0,6.0,81,-99.99,,,0.00,480.00,VWS V14.01,2013-04-24 13:09:00,
2013-04-24 09:14:00,52.0,46.0,30.01,SSE,158,2.0,4.0,80,-99.99,,,0.00,360.00,VWS V14.01,2013-04-24 13:14:00,
2013-04-24 09:19:00,52.0,46.0,30.01,SSE,158,3.0,4.0,80,-99.99,,,0.00,360.00,VWS V14.01,2013-04-24 13:19:00,
2013-04-24 09:24:00,52.0,46.0,30.01,South,180,5.0,8.0,80,-99.99,,,0.00,330.00,VWS V14.01,2013-04-24 13:24:00,
2013-04-24 09:29:00,52.0,46.4,30.01,SSE,158,11.0,11.0,81,-99.99,,,0.00,510.00,VWS V14.01,2013-04-24 13:29:00,
2013-04-24 09:34:00,53.0,47.3,30.01,ESE,112,3.0,6.0,81,-99.99,,,0.00,300.00,VWS V14.01,2013-04-24 13:34:00,
2013-04-24 09:39:00,53.0,46.7,30.00,SE,135,6.0,8.0,79,-99.99,,,0.00,410.00,VWS V14.01,2013-04-24 13:39:00,
2013-04-24 09:44:00,54.0,47.6,30.00,SSE,158,6.0,7.0,79,-99.99,,,0.00,580.00,VWS V14.01,2013-04-24 13:44:00,
2013-04-24 09:49:00,54.0,47.3,30.00,ESE,112,7.0,11.0,78,-99.99,,,0.00,560.00,VWS V14.01,2013-04-24 13:49:00,
2013-04-24 09:54:00,55.0,47.6,30.00,ENE,68,11.0,13.0,76,-99.99,,,0.00,670.00,VWS V14.01,2013-04-24 13:54:00,
2013-04-24 09:59:00,55.0,47.2,30.00,ESE,112,5.0,12.0,75,-99.99,,,0.00,270.00,VWS V14.01,2013-04-24 13:59:00,
2013-04-24 10:04:00,56.0,48.2,29.99,SE,135,6.0,10.0,75,-99.99,,,0.00,560.00,VWS V14.01,2013-04-24 14:04:00,
2013-04-24 10:09:00,56.0,47.8,29.99,ENE,68,5.0,10.0,74,-99.99,,,0.00,430.00,VWS V14.01,2013-04-24 14:09:00,
2013-04-24 10:14:00,56.0,47.5,29.99,SE,135,8.0,9.0,73,-99.99,,,0.00,320.00,VWS V14.01,2013-04-24 14:14:00,
2013-04-24 10:19:00,57.0,48.4,29.98,ESE,112,7.0,11.0,73,-99.99,,,0.00,560.00,VWS V14.01,2013-04-24 14:19:00,
2013-04-24 10:24:00,57.0,48.1,29.98,ENE,68,7.0,13.0,72,-99.99,,,0.00,620.00,VWS V14.01,2013-04-24 14:24:00,
2013-04-24 10:29:00,58.0,48.7,29.97,ESE,112,9.0,9.0,71,-99.99,,,0.00,400.00,VWS V14.01,2013-04-24 14:29:00,
2013-04-24 10:34:00,58.0,48.3,29.97,ESE,112,7.0,8.0,70,-99.99,,,0.00,690.00,VWS V14.01,2013-04-24 14:34:00,
2013-04-24 10:39:00,59.0,49.6,29.97,ESE,112,4.0,5.0,71,-99.99,,,0.00,500.00,VWS V14.01,2013-04-24 14:39:00,
2013-04-24 10:44:00,59.0,48.9,29.97,ESE,112,4.0,9.0,69,-99.99,,,0.00,490.00,VWS V14.01,2013-04-24 14:44:00,
2013-04-24 10:49:00,59.0,48.5,29.96,ESE,112,5.0,9.0,68,-99.99,,,0.00,700.00,VWS V14.01,2013-04-24 14:49:00,
2013-04-24 10:54:00,60.0,49.4,29.96,ESE,112,7.0,7.0,68,-99.99,,,0.00,590.00,VWS V14.01,2013-04-24 14:54:00,
2013-04-24 10:59:00,59.0,48.1,29.95,SSE,158,6.0,13.0,67,-99.99,,,0.00,680.00,VWS V14.01,2013-04-24 14:59:00,
2013-04-24 11:04:00,59.0,48.1,29.95,South,180,9.0,10.0,67,-99.99,,,0.00,710.00,VWS V14.01,2013-04-24 15:04:00,
2013-04-24 11:09:00,60.0,49.0,29.95,ESE,112,9.0,9.0,67,-99.99,,,0.00,670.00,VWS V14.01,2013-04-24 15:09:00,
2013-04-24 11:14:00,60.0,48.6,29.95,SSE,158,7.0,9.0,66,-99.99,,,0.00,620.00,VWS V14.01,2013-04-24 15:14:00,
2013-04-24 11:19:00,60.0,48.6,29.95,SE,135,6.0,9.0,66,-99.99,,,0.00,650.00,VWS V14.01,2013-04-24 15:19:00,
2013-04-24 11:24:00,60.0,48.6,29.95,SE,135,4.0,9.0,66,-99.99,,,0.00,700.00,VWS V14.01,2013-04-24 15:24:00,
2013-04-24 11:29:00,60.0,48.6,29.94,SSE,158,10.0,11.0,66,-99.99,,,0.00,700.00,VWS V14.01,2013-04-24 15:29:00,
2013-04-24 11:34:00,61.0,49.2,29.94,SE,135,4.0,9.0,65,-99.99,,,0.00,720.00,VWS V14.01,2013-04-24 15:34:00,
2013-04-24 11:39:00,61.0,48.8,29.93,SSE,158,5.0,7.0,64,-99.99,,,0.00,720.00,VWS V14.01,2013-04-24 15:39:00,
2013-04-24 11:44:00,63.0,50.7,29.93,ENE,68,4.0,6.0,64,-99.99,,,0.00,680.00,VWS V14.01,2013-04-24 15:44:00,
2013-04-24 11:49:00,63.0,49.8,29.93,SE,135,8.0,10.0,62,-99.99,,,0.00,390.00,VWS V14.01,2013-04-24 15:49:00,
2013-04-24 11:54:00,64.0,49.4,29.92,SSE,158,4.0,11.0,59,-99.99,,,0.00,820.00,VWS V14.01,2013-04-24 15:54:00,
2013-04-24 11:59:00,64.0,49.4,29.92,SE,135,7.0,10.0,59,-99.99,,,0.00,780.00,VWS V14.01,2013-04-24 15:59:00,
2013-04-24 12:04:00,64.0,49.4,29.92,ESE,112,8.0,10.0,59,-99.99,,,0.00,610.00,VWS V14.01,2013-04-24 16:04:00,
2013-04-24 12:09:00,64.0,49.8,29.92,SE,135,12.0,13.0,60,-99.99,,,0.00,410.00,VWS V14.01,2013-04-24 16:09:00,
2013-04-24 12:14:00,63.0,48.9,29.92,SE,135,4.0,9.0,60,-99.99,,,0.00,460.00,VWS V14.01,2013-04-24 16:14:00,
2013-04-24 12:19:00,64.0,49.4,29.92,East,90,11.0,11.0,59,-99.99,,,0.00,440.00,VWS V14.01,2013-04-24 16:19:00,
2013-04-24 12:24:00,64.0,49.4,29.91,ESE,112,10.0,12.0,59,-99.99,,,0.00,690.00,VWS V14.01,2013-04-24 16:24:00,
2013-04-24 12:29:00,64.0,49.4,29.91,South,180,8.0,9.0,59,-99.99,,,0.00,570.00,VWS V14.01,2013-04-24 16:29:00,
2013-04-24 12:34:00,65.0,50.3,29.90,ESE,112,13.0,13.0,59,-99.99,,,0.00,770.00,VWS V14.01,2013-04-24 16:34:00,
2013-04-24 12:39:00,65.0,49.4,29.90,SE,135,7.0,11.0,57,-99.99,,,0.00,790.00,VWS V14.01,2013-04-24 16:39:00,
2013-04-24 12:44:00,64.0,48.5,29.90,SE,135,10.0,14.0,57,-99.99,,,0.00,770.00,VWS V14.01,2013-04-24 16:44:00,
2013-04-24 12:49:00,65.0,49.4,29.90,SE,135,8.0,16.0,57,-99.99,,,0.00,780.00,VWS V14.01,2013-04-24 16:49:00,
2013-04-24 12:54:00,65.0,48.9,29.89,SE,135,10.0,17.0,56,-99.99,,,0.00,820.00,VWS V14.01,2013-04-24 16:54:00,
2013-04-24 12:59:00,66.0,50.3,29.88,SSE,158,13.0,13.0,57,-99.99,,,0.00,790.00,VWS V14.01,2013-04-24 16:59:00,
2013-04-24 13:04:00,66.0,49.9,29.88,SE,135,3.0,5.0,56,-99.99,,,0.00,740.00,VWS V14.01,2013-04-24 17:04:00,
2013-04-24 13:09:00,67.0,49.3,29.87,SE,135,12.0,14.0,53,-99.99,,,0.00,730.00,VWS V14.01,2013-04-24 17:09:00,
2013-04-24 13:14:00,67.0,50.3,29.86,SE,135,6.0,10.0,55,-99.99,,,0.00,680.00,VWS V14.01,2013-04-24 17:14:00,
2013-04-24 13:19:00,66.0,48.9,29.87,South,180,11.0,13.0,54,-99.99,,,0.00,700.00,VWS V14.01,2013-04-24 17:19:00,
2013-04-24 13:24:00,67.0,49.8,29.86,SSE,158,8.0,13.0,54,-99.99,,,0.00,700.00,VWS V14.01,2013-04-24 17:24:00,
2013-04-24 13:29:00,68.0,50.8,29.86,South,180,7.0,12.0,54,-99.99,,,0.00,710.00,VWS V14.01,2013-04-24 17:29:00,
2013-04-24 13:34:00,68.0,49.7,29.85,SE,135,7.0,13.0,52,-99.99,,,0.00,700.00,VWS V14.01,2013-04-24 17:34:00,
2013-04-24 13:39:00,68.0,49.7,29.85,SSE,158,9.0,9.0,52,-99.99,,,0.00,690.00,VWS V14.01,2013-04-24 17:39:00,
2013-04-24 13:44:00,68.0,49.7,29.85,SE,135,9.0,15.0,52,-99.99,,,0.00,690.00,VWS V14.01,2013-04-24 17:44:00,
2013-04-24 13:49:00,68.0,49.2,29.85,South,180,7.0,12.0,51,-99.99,,,0.00,700.00,VWS V14.01,2013-04-24 17:49:00,
2013-04-24 13:54:00,68.0,49.7,29.85,South,180,12.0,16.0,52,-99.99,,,0.00,530.00,VWS V14.01,2013-04-24 17:54:00,
2013-04-24 13:59:00,68.0,49.7,29.85,SSE,158,13.0,13.0,52,-99.99,,,0.00,690.00,VWS V14.01,2013-04-24 17:59:00,
2013-04-24 14:04:00,68.0,49.7,29.84,SSE,158,10.0,12.0,52,-99.99,,,0.00,710.00,VWS V14.01,2013-04-24 18:04:00,
2013-04-24 14:09:00,69.0,50.1,29.84,SE,135,10.0,15.0,51,-99.99,,,0.00,630.00,VWS V14.01,2013-04-24 18:09:00,
2013-04-24 14:14:00,69.0,49.6,29.84,SSE,158,13.0,15.0,50,-99.99,,,0.00,570.00,VWS V14.01,2013-04-24 18:14:00,
2013-04-24 14:19:00,69.0,49.6,29.84,SE,135,14.0,21.0,50,-99.99,,,0.00,450.00,VWS V14.01,2013-04-24 18:19:00,
2013-04-24 14:24:00,70.0,51.1,29.84,SE,135,10.0,13.0,51,-99.99,,,0.00,540.00,VWS V14.01,2013-04-24 18:24:00,
2013-04-24 14:29:00,71.0,51.5,29.83,ENE,68,6.0,8.0,50,-99.99,,,0.00,430.00,VWS V14.01,2013-04-24 18:29:00,
2013-04-24 14:34:00,70.0,50.5,29.83,ESE,112,9.0,12.0,50,-99.99,,,0.00,510.00,VWS V14.01,2013-04-24 18:34:00,
2013-04-24 14:39:00,71.0,51.5,29.83,East,90,14.0,14.0,50,-99.99,,,0.00,740.00,VWS V14.01,2013-04-24 18:39:00,
2013-04-24 14:44:00,71.0,51.5,29.83,NNE,22,4.0,7.0,50,-99.99,,,0.00,670.00,VWS V14.01,2013-04-24 18:44:00,
2013-04-24 14:49:00,71.0,50.3,29.82,ESE,112,8.0,14.0,48,-99.99,,,0.00,460.00,VWS V14.01,2013-04-24 18:49:00,
2013-04-24 14:54:00,71.0,50.9,29.82,East,90,9.0,14.0,49,-99.99,,,0.00,350.00,VWS V14.01,2013-04-24 18:54:00,
2013-04-24 14:59:00,70.0,50.5,29.82,ESE,112,7.0,14.0,50,-99.99,,,0.00,580.00,VWS V14.01,2013-04-24 18:59:00,
2013-04-24 15:04:00,70.0,51.6,29.82,SSE,158,7.0,13.0,52,-99.99,,,0.00,590.00,VWS V14.01,2013-04-24 19:04:00,
2013-04-24 15:09:00,70.0,51.6,29.82,SSE,158,12.0,20.0,52,-99.99,,,0.00,490.00,VWS V14.01,2013-04-24 19:09:00,
2013-04-24 15:14:00,69.0,51.2,29.82,SE,135,18.0,23.0,53,-99.99,,,0.00,570.00,VWS V14.01,2013-04-24 19:14:00,
2013-04-24 15:19:00,70.0,52.1,29.82,SSE,158,11.0,14.0,53,-99.99,,,0.00,470.00,VWS V14.01,2013-04-24 19:19:00,
2013-04-24 15:24:00,69.0,51.2,29.82,SSE,158,11.0,19.0,53,-99.99,,,0.00,410.00,VWS V14.01,2013-04-24 19:24:00,
2013-04-24 15:29:00,70.0,52.1,29.82,South,180,9.0,11.0,53,-99.99,,,0.00,460.00,VWS V14.01,2013-04-24 19:29:00,
2013-04-24 15:34:00,70.0,52.1,29.81,SE,135,7.0,16.0,53,-99.99,,,0.00,440.00,VWS V14.01,2013-04-24 19:34:00,
2013-04-24 15:40:00,71.0,53.0,29.81,NNE,22,7.0,13.0,53,-99.99,,,0.00,310.00,VWS V14.01,2013-04-24 19:40:00,
2013-04-24 15:45:00,71.0,53.0,29.81,South,180,7.0,10.0,53,-99.99,,,0.00,350.00,VWS V14.01,2013-04-24 19:45:00,
2013-04-24 15:50:00,70.0,52.1,29.80,SSE,158,23.0,25.0,53,-99.99,,,0.00,350.00,VWS V14.01,2013-04-24 19:50:00,
2013-04-24 15:55:00,69.0,52.2,29.81,SSE,158,13.0,18.0,55,-99.99,,,0.00,630.00,VWS V14.01,2013-04-24 19:55:00,
2013-04-24 16:00:00,70.0,53.1,29.80,SE,135,13.0,16.0,55,-99.99,,,0.00,510.00,VWS V14.01,2013-04-24 20:00:00,
2013-04-24 16:05:00,70.0,53.6,29.80,East,90,6.0,13.0,56,-99.99,,,0.00,240.00,VWS V14.01,2013-04-24 20:05:00,
2013-04-24 16:10:00,70.0,53.1,29.79,ENE,68,7.0,15.0,55,-99.99,,,0.00,220.00,VWS V14.01,2013-04-24 20:10:00,
2013-04-24 16:15:00,70.0,54.1,29.78,ESE,112,7.0,13.0,57,-99.99,,,0.00,430.00,VWS V14.01,2013-04-24 20:15:00,
2013-04-24 16:20:00,70.0,53.1,29.77,ENE,68,7.0,14.0,55,-99.99,,,0.00,500.00,VWS V14.01,2013-04-24 20:20:00,
2013-04-24 16:25:00,70.0,53.6,29.77,ENE,68,10.0,11.0,56,-99.99,,,0.00,440.00,VWS V14.01,2013-04-24 20:25:00,
2013-04-24 16:30:00,71.0,54.5,29.76,ENE,68,7.0,15.0,56,-99.99,,,0.00,410.00,VWS V14.01,2013-04-24 20:30:00,
2013-04-24 16:35:00,71.0,54.5,29.75,ENE,68,9.0,17.0,56,-99.99,,,0.00,360.00,VWS V14.01,2013-04-24 20:35:00,
2013-04-24 16:40:00,70.0,54.6,29.75,ESE,112,13.0,16.0,58,-99.99,,,0.00,340.00,VWS V14.01,2013-04-24 20:40:00,
2013-04-24 16:45:00,70.0,54.1,29.74,ESE,112,10.0,15.0,57,-99.99,,,0.00,310.00,VWS V14.01,2013-04-24 20:45:00,
2013-04-24 16:50:00,70.0,54.1,29.74,ESE,112,11.0,16.0,57,-99.99,,,0.00,170.00,VWS V14.01,2013-04-24 20:50:00,
2013-04-24 16:55:00,70.0,54.6,29.74,East,90,12.0,14.0,58,-99.99,,,0.00,150.00,VWS V14.01,2013-04-24 20:55:00,
2013-04-24 17:00:00,70.0,55.0,29.74,East,90,4.0,13.0,59,-99.99,,,0.00,150.00,VWS V14.01,2013-04-24 21:00:00,
2013-04-24 17:05:00,69.0,54.1,29.74,ESE,112,9.0,21.0,59,-99.99,,,0.00,160.00,VWS V14.01,2013-04-24 21:05:00,
2013-04-24 17:10:00,69.0,54.5,29.74,ESE,112,16.0,19.0,60,-99.99,,,0.00,160.00,VWS V14.01,2013-04-24 21:10:00,
2013-04-24 17:15:00,69.0,54.5,29.74,ESE,112,7.0,16.0,60,-99.99,,,0.00,150.00,VWS V14.01,2013-04-24 21:15:00,
2013-04-24 17:20:00,70.0,56.0,29.74,ENE,68,8.0,13.0,61,-99.99,,,0.00,150.00,VWS V14.01,2013-04-24 21:20:00,
2013-04-24 17:25:00,69.0,54.5,29.74,South,180,8.0,22.0,60,-99.99,,,0.00,160.00,VWS V14.01,2013-04-24 21:25:00,
2013-04-24 17:30:00,70.0,55.5,29.75,ENE,68,7.0,18.0,60,-99.99,,,0.00,150.00,VWS V14.01,2013-04-24 21:30:00,
2013-04-24 17:35:00,70.0,55.5,29.75,ESE,112,8.0,10.0,60,-99.99,,,0.00,120.00,VWS V14.01,2013-04-24 21:35:00,
2013-04-24 17:40:00,70.0,55.5,29.76,ESE,112,10.0,22.0,60,-99.99,,,0.00,80.00,VWS V14.01,2013-04-24 21:40:00,
2013-04-24 17:45:00,70.0,56.0,29.76,ESE,112,12.0,17.0,61,-99.99,,,0.00,90.00,VWS V14.01,2013-04-24 21:45:00,
2013-04-24 17:50:00,69.0,54.5,29.76,ENE,68,8.0,17.0,60,-99.99,,,0.00,90.00,VWS V14.01,2013-04-24 21:50:00,
2013-04-24 17:55:00,70.0,55.5,29.78,SE,135,7.0,16.0,60,-99.99,,,0.00,70.00,VWS V14.01,2013-04-24 21:55:00,
2013-04-24 18:00:00,70.0,55.5,29.78,ESE,112,11.0,13.0,60,-99.99,,,0.00,60.00,VWS V14.01,2013-04-24 22:00:00,
2013-04-24 18:05:00,70.0,55.5,29.78,SE,135,16.0,18.0,60,-99.99,,,0.00,60.00,VWS V14.01,2013-04-24 22:05:00,
2013-04-24 18:10:00,69.0,55.9,29.79,East,90,9.0,16.0,63,-99.99,,,0.00,40.00,VWS V14.01,2013-04-24 22:10:00,
2013-04-24 18:15:00,68.0,56.7,29.79,ESE,112,14.0,19.0,67,-99.99,,,0.01,30.00,VWS V14.01,2013-04-24 22:15:00,
2013-04-24 18:20:00,67.0,57.7,29.79,SE,135,12.0,13.0,72,-99.99,,,0.01,20.00,VWS V14.01,2013-04-24 22:20:00,
2013-04-24 18:25:00,66.0,57.1,29.80,SE,135,11.0,16.0,73,-99.99,,,0.02,10.00,VWS V14.01,2013-04-24 22:25:00,
2013-04-24 18:30:00,66.0,57.9,29.81,South,180,3.0,11.0,75,-99.99,,,0.03,10.00,VWS V14.01,2013-04-24 22:30:00,
2013-04-24 18:35:00,64.0,58.1,29.83,SW,225,14.0,26.0,81,-99.99,,,0.07,0.00,VWS V14.01,2013-04-24 22:35:00,
2013-04-24 18:40:00,62.0,58.4,29.84,SW,225,15.0,15.0,88,-99.99,,,0.15,0.00,VWS V14.01,2013-04-24 22:40:00,
2013-04-24 18:45:00,62.0,59.3,29.84,SSW,202,15.0,21.0,91,-99.99,,,0.17,10.00,VWS V14.01,2013-04-24 22:45:00,
2013-04-24 18:50:00,62.0,59.7,29.81,WSW,248,1.0,1.0,92,-99.99,,,0.19,10.00,VWS V14.01,2013-04-24 22:50:00,
2013-04-24 18:55:00,62.0,60.0,29.80,ESE,112,3.0,4.0,93,-99.99,,,0.19,10.00,VWS V14.01,2013-04-24 22:55:00,
2013-04-24 19:00:00,62.0,60.3,29.81,South,180,3.0,4.0,94,-99.99,,,0.19,10.00,VWS V14.01,2013-04-24 23:00:00,
2013-04-24 19:05:00,62.0,60.3,29.82,ESE,112,5.0,5.0,94,-99.99,,,0.19,10.00,VWS V14.01,2013-04-24 23:05:00,
2013-04-24 19:10:00,62.0,60.6,29.81,SE,135,4.0,5.0,95,-99.99,,,0.20,10.00,VWS V14.01,2013-04-24 23:10:00,
2013-04-24 19:15:00,62.0,60.8,29.82,ESE,112,7.0,9.0,96,-99.99,,,0.21,10.00,VWS V14.01,2013-04-24 23:15:00,
2013-04-24 19:20:00,61.0,59.9,29.81,ESE,112,5.0,7.0,96,-99.99,,,0.21,10.00,VWS V14.01,2013-04-24 23:20:00,
2013-04-24 19:25:00,61.0,59.9,29.81,East,90,5.0,5.0,96,-99.99,,,0.22,10.00,VWS V14.01,2013-04-24 23:25:00,
2013-04-24 19:30:00,61.0,60.2,29.80,East,90,3.0,4.0,97,-99.99,,,0.22,10.00,VWS V14.01,2013-04-24 23:30:00,
2013-04-24 19:35:00,61.0,60.2,29.80,ESE,112,5.0,5.0,97,-99.99,,,0.23,10.00,VWS V14.01,2013-04-24 23:35:00,
2013-04-24 19:40:00,61.0,60.2,29.81,SE,135,5.0,5.0,97,-99.99,,,0.23,0.00,VWS V14.01,2013-04-24 23:40:00,
2013-04-24 19:45:00,61.0,60.2,29.81,ESE,112,4.0,6.0,97,-99.99,,,0.23,0.00,VWS V14.01,2013-04-24 23:45:00,
2013-04-24 19:50:00,61.0,60.2,29.80,East,90,3.0,3.0,97,-99.99,,,0.23,0.00,VWS V14.01,2013-04-24 23:50:00,
2013-04-24 19:55:00,61.0,60.2,29.80,SE,135,3.0,4.0,97,-99.99,,,0.24,0.00,VWS V14.01,2013-04-24 23:55:00,
2013-04-24 20:00:00,61.0,60.2,29.80,SE,135,3.0,4.0,97,-99.99,,,0.24,0.00,VWS V14.01,2013-04-25 00:00:00,
2013-04-24 20:05:00,61.0,60.2,29.80,SE,135,4.0,4.0,97,-99.99,,,0.25,0.00,VWS V14.01,2013-04-25 00:05:00,
2013-04-24 20:10:00,61.0,60.2,29.80,SE,135,5.0,5.0,97,-99.99,,,0.25,0.00,VWS V14.01,2013-04-25 00:10:00,
2013-04-24 20:15:00,61.0,60.2,29.80,SE,135,4.0,5.0,97,-99.99,,,0.25,0.00,VWS V14.01,2013-04-25 00:15:00,
2013-04-24 20:20:00,61.0,60.4,29.79,ESE,112,4.0,7.0,98,-99.99,,,0.25,0.00,VWS V14.01,2013-04-25 00:20:00,
2013-04-24 20:25:00,61.0,60.4,29.80,SE,135,6.0,6.0,98,-99.99,,,0.25,0.00,VWS V14.01,2013-04-25 00:25:00,
2013-04-24 20:30:00,61.0,60.2,29.80,ESE,112,6.0,6.0,97,-99.99,,,0.25,0.00,VWS V14.01,2013-04-25 00:30:00,
2013-04-24 20:35:00,61.0,60.2,29.80,ESE,112,6.0,7.0,97,-99.99,,,0.25,0.00,VWS V14.01,2013-04-25 00:35:00,
2013-04-24 20:40:00,61.0,59.9,29.80,SSE,158,3.0,7.0,96,-99.99,,,0.25,0.00,VWS V14.01,2013-04-25 00:40:00,
2013-04-24 20:45:00,61.0,59.9,29.80,East,90,5.0,8.0,96,-99.99,,,0.25,0.00,VWS V14.01,2013-04-25 00:45:00,
2013-04-24 20:50:00,61.0,59.9,29.80,SSE,158,3.0,4.0,96,-99.99,,,0.25,0.00,VWS V14.01,2013-04-25 00:50:00,
2013-04-24 20:55:00,61.0,59.6,29.80,ESE,112,4.0,5.0,95,-99.99,,,0.25,0.00,VWS V14.01,2013-04-25 00:55:00,
2013-04-24 21:00:00,61.0,59.6,29.80,SSE,158,12.0,12.0,95,-99.99,,,0.25,0.00,VWS V14.01,2013-04-25 01:00:00,
2013-04-24 21:05:00,61.0,59.6,29.80,South,180,7.0,7.0,95,-99.99,,,0.25,0.00,VWS V14.01,2013-04-25 01:05:00,
2013-04-24 21:10:00,61.0,59.6,29.80,South,180,6.0,6.0,95,-99.99,,,0.25,0.00,VWS V14.01,2013-04-25 01:10:00,
2013-04-24 21:15:00,61.0,59.6,29.80,SSW,202,4.0,7.0,95,-99.99,,,0.25,0.00,VWS V14.01,2013-04-25 01:15:00,
2013-04-24 21:20:00,61.0,59.6,29.80,SSE,158,7.0,8.0,95,-99.99,,,0.25,0.00,VWS V14.01,2013-04-25 01:20:00,
2013-04-24 21:25:00,61.0,59.3,29.80,SE,135,7.0,12.0,94,-99.99,,,0.25,0.00,VWS V14.01,2013-04-25 01:25:00,
2013-04-24 21:30:00,62.0,60.3,29.81,SSE,158,7.0,7.0,94,-99.99,,,0.25,0.00,VWS V14.01,2013-04-25 01:30:00,
2013-04-24 21:35:00,62.0,60.0,29.81,South,180,7.0,12.0,93,-99.99,,,0.25,0.00,VWS V14.01,2013-04-25 01:35:00,
2013-04-24 21:40:00,62.0,60.0,29.81,SSW,202,5.0,5.0,93,-99.99,,,0.25,0.00,VWS V14.01,2013-04-25 01:40:00,
2013-04-24 21:45:00,62.0,60.0,29.81,SSW,202,4.0,8.0,93,-99.99,,,0.25,0.00,VWS V14.01,2013-04-25 01:45:00,
2013-04-24 21:50:00,62.0,60.0,29.82,South,180,2.0,7.0,93,-99.99,,,0.25,0.00,VWS V14.01,2013-04-25 01:50:00,
2013-04-24 21:55:00,58.0,54.5,29.85,WSW,248,27.0,41.0,88,-99.99,,,0.26,0.00,VWS V14.01,2013-04-25 01:55:00,
2013-04-24 22:00:00,57.0,54.1,29.87,WSW,248,21.0,34.0,90,-99.99,,,0.28,0.00,VWS V14.01,2013-04-25 02:00:00,
2013-04-24 22:05:00,57.0,54.1,29.88,SW,225,19.0,22.0,90,-99.99,,,0.29,0.00,VWS V14.01,2013-04-25 02:05:00,
2013-04-24 22:10:00,57.0,54.1,29.88,South,180,9.0,21.0,90,-99.99,,,0.29,0.00,VWS V14.01,2013-04-25 02:10:00,
2013-04-24 22:15:00,57.0,54.4,29.88,SW,225,6.0,15.0,91,-99.99,,,0.29,0.00,VWS V14.01,2013-04-25 02:15:00,
2013-04-24 22:20:00,56.0,52.2,29.89,South,180,14.0,16.0,87,-99.99,,,0.29,0.00,VWS V14.01,2013-04-25 02:20:00,
2013-04-24 22:25:00,56.0,51.2,29.90,SSW,202,13.0,13.0,84,-99.99,,,0.29,0.00,VWS V14.01,2013-04-25 02:25:00,
2013-04-24 22:30:00,55.0,50.3,29.90,WSW,248,7.0,9.0,84,-99.99,,,0.29,0.00,VWS V14.01,2013-04-25 02:30:00,
2013-04-24 22:35:00,55.0,50.6,29.91,SW,225,9.0,15.0,85,-99.99,,,0.29,0.00,VWS V14.01,2013-04-25 02:35:00,
2013-04-24 22:40:00,55.0,49.6,29.91,WSW,248,15.0,23.0,82,-99.99,,,0.29,0.00,VWS V14.01,2013-04-25 02:40:00,
2013-04-24 22:45:00,54.0,47.0,29.92,WSW,248,14.0,23.0,77,-99.99,,,0.29,0.00,VWS V14.01,2013-04-25 02:45:00,
2013-04-24 22:50:00,54.0,46.6,29.92,West,270,16.0,21.0,76,-99.99,,,0.29,0.00,VWS V14.01,2013-04-25 02:50:00,
2013-04-24 22:55:00,53.0,45.0,29.93,South,180,14.0,29.0,74,-99.99,,,0.29,0.00,VWS V14.01,2013-04-25 02:55:00,
2013-04-24 22:56:00,49.0,40.7,30.03,SSW,202,16.0,18.0,73,-99.99,,,0.29,0.00,VWS V14.01,2013-04-25 02:56:00,
2013-04-24 22:57:00,49.0,40.7,30.02,SW,225,8.0,8.0,73,-99.99,,,0.29,0.00,VWS V14.01,2013-04-25 02:57:00,
2013-04-24 22:58:00,49.0,41.1,30.03,SW,225,19.0,19.0,74,-99.99,,,0.29,0.00,VWS V14.01,2013-04-25 02:58:00,
2013-04-24 22:59:00,49.0,40.7,30.03,SSW,202,14.0,19.0,73,-99.99,,,0.29,0.00,VWS V14.01,2013-04-25 02:59:00,
2013-04-24 23:00:00,53.0,44.6,29.94,SW,225,23.0,26.0,73,-99.99,,,0.29,0.00,VWS V14.01,2013-04-25 03:00:00,
2013-04-24 23:01:00,48.0,39.8,30.03,SSW,202,14.0,22.0,73,-99.99,,,0.29,0.00,VWS V14.01,2013-04-25 03:01:00,
2013-04-24 23:02:00,48.0,39.8,30.04,South,180,19.0,19.0,73,-99.99,,,0.29,0.00,VWS V14.01,2013-04-25 03:02:00,
2013-04-24 23:03:00,48.0,39.8,30.04,SSW,202,17.0,21.0,73,-99.99,,,0.29,0.00,VWS V14.01,2013-04-25 03:03:00,
2013-04-24 23:05:00,53.0,44.2,29.95,SSW,202,11.0,11.0,72,-99.99,,,0.29,0.00,VWS V14.01,2013-04-25 03:05:00,
2013-04-24 23:10:00,52.0,44.0,29.95,SSW,202,16.0,22.0,74,-99.99,,,0.29,0.00,VWS V14.01,2013-04-25 03:10:00,
2013-04-24 23:15:00,52.0,43.3,29.96,WSW,248,8.0,22.0,72,-99.99,,,0.29,0.00,VWS V14.01,2013-04-25 03:15:00,
2013-04-24 23:20:00,52.0,43.3,29.97,SSW,202,13.0,28.0,72,-99.99,,,0.29,0.00,VWS V14.01,2013-04-25 03:20:00,
2013-04-24 23:25:00,51.0,42.7,29.98,WSW,248,22.0,29.0,73,-99.99,,,0.29,0.00,VWS V14.01,2013-04-25 03:25:00,
2013-04-24 23:30:00,51.0,43.0,29.98,SSW,202,22.0,22.0,74,-99.99,,,0.29,0.00,VWS V14.01,2013-04-25 03:30:00,
2013-04-24 23:35:00,50.0,41.0,29.98,SSW,202,29.0,32.0,71,-99.99,,,0.29,0.00,VWS V14.01,2013-04-25 03:35:00,
2013-04-24 23:40:00,49.0,40.0,29.99,SW,225,16.0,36.0,71,-99.99,,,0.29,0.00,VWS V14.01,2013-04-25 03:40:00,
2013-04-24 23:45:00,49.0,40.4,30.00,SW,225,26.0,26.0,72,-99.99,,,0.29,0.00,VWS V14.01,2013-04-25 03:45:00,
2013-04-24 23:50:00,49.0,40.4,30.01,SSW,202,22.0,28.0,72,-99.99,,,0.29,0.00,VWS V14.01,2013-04-25 03:50:00,
2013-04-24 23:55:00,49.0,40.4,30.01,WSW,248,11.0,22.0,72,-99.99,,,0.29,0.00,VWS V14.01,2013-04-25 03:55:00,